{"data":{"norad_id":62017,"intl_designator":"2024-213K","name":"STARLINK-11343 [DTC]","alt_names":[],"object_type":"PAYLOAD","status":"ACTIVE","operator":null,"country":"US","launch_date":"2024-11-18","launch_site_code":"AFWTR","launch_vehicle":null,"mission":null,"orbit_class":"UNKNOWN","rcs_meters":null,"size_class":null,"mass_kg":null,"dimensions":null,"purposes":["comms"],"wikipedia_slug":null,"has_3d_model":false,"image_url":null,"decayed_at":null,"tle_current":{"epoch":"2026-05-25T02:13:41.930688Z","epoch_age_seconds":62904,"freshness":"FRESH","line1":"1 62017U 24213K   26145.09284642  .00151653  00000+0  12311-2 0  9991","line2":"2 62017  53.1577  24.7352 0000782  87.9172 272.1936 15.69764246 86914","mean_motion":15.69764246,"eccentricity":7.82e-5,"inclination_deg":53.1577,"raan_deg":24.7352,"arg_perigee_deg":87.9172,"mean_anomaly_deg":272.1936,"bstar":0.0012311,"rev_number":8691,"period_min":91.733520091908,"perigee_km":359.04463479576,"apogee_km":360.09841240885,"semimajor_km":6737.7085236023,"source":"CELESTRAK","updated_at":"2026-05-25T13:38:19.520344Z"}}}